TimeCDT,TemperatureF,Dew PointF,Humidity,Sea Level PressureIn,VisibilityMPH,Wind Direction,Wind SpeedMPH,Gust SpeedMPH,PrecipitationIn,Events,Conditions,WindDirDegrees,DateUTC
12:53 AM,45.0,30.0,56,29.91,10.0,North,23.0,40.3,N/A,,Mostly Cloudy,350,2012-10-30 05:53:00
2:53 AM,45.0,30.9,58,29.86,10.0,North,23.0,36.8,N/A,,Mostly Cloudy,350,2012-10-30 07:53:00
3:53 AM,45.0,32.0,60,29.83,10.0,NNW,24.2,42.6,N/A,,Mostly Cloudy,340,2012-10-30 08:53:00
4:53 AM,44.1,30.9,60,29.82,10.0,NNW,23.0,42.6,N/A,,Overcast,340,2012-10-30 09:53:00
5:53 AM,44.1,30.9,60,29.79,10.0,NNW,16.1,46.0,N/A,,Mostly Cloudy,340,2012-10-30 10:53:00
6:53 AM,44.1,30.9,60,29.78,10.0,NNW,27.6,40.3,N/A,,Overcast,340,2012-10-30 11:53:00
7:53 AM,44.1,30.9,60,29.76,10.0,North,20.7,43.7,N/A,,Overcast,350,2012-10-30 12:53:00
8:42 AM,44.6,32.0,61,29.74,10.0,North,23.0,42.6,N/A,,Overcast,350,2012-10-30 13:42:00
8:53 AM,45.0,33.1,63,29.75,10.0,North,32.2,46.0,N/A,,Overcast,350,2012-10-30 13:53:00
9:53 AM,44.1,34.0,68,29.73,10.0,North,28.8,46.0,N/A,,Overcast,350,2012-10-30 14:53:00
10:53 AM,44.1,35.1,71,29.74,10.0,North,21.9,42.6,N/A,,Overcast,350,2012-10-30 15:53:00
11:53 AM,44.1,35.1,71,29.73,10.0,NNW,20.7,40.3,N/A,,Overcast,340,2012-10-30 16:53:00
1:25 PM,42.8,37.4,81,29.71,2.0,NNW,16.1,35.7,0.02,,Overcast,340,2012-10-30 18:25:00
1:34 PM,42.8,37.4,81,29.72,1.8,North,21.9,35.7,0.03,,Overcast,350,2012-10-30 18:34:00
1:49 PM,42.8,37.4,81,29.71,2.0,NNW,18.4,35.7,0.04,,Overcast,340,2012-10-30 18:49:00
1:53 PM,42.1,37.9,85,29.72,2.5,NNW,18.4,34.5,0.05,,Overcast,330,2012-10-30 18:53:00
2:24 PM,42.8,37.4,81,29.71,3.0,NNW,17.3,34.5,0.01,,Overcast,340,2012-10-30 19:24:00
2:53 PM,42.1,37.9,85,29.72,3.0,NNW,19.6,38.0,0.03,,Overcast,340,2012-10-30 19:53:00
3:00 PM,42.8,37.4,81,29.71,3.0,NNW,23.0,38.0,N/A,,Overcast,340,2012-10-30 20:00:00
3:25 PM,42.8,37.4,81,29.72,6.0,NNW,19.6,33.4,0.00,Rain,Light Rain,330,2012-10-30 20:25:00
3:44 PM,42.8,37.4,81,29.72,6.0,NNW,19.6,35.7,0.01,Rain,Light Rain,340,2012-10-30 20:44:00
3:53 PM,42.1,37.9,85,29.73,9.0,NNW,20.7,31.1,0.01,Rain,Light Rain,340,2012-10-30 20:53:00
4:26 PM,42.8,39.2,87,29.72,3.0,NNW,15.0,29.9,0.01,,Overcast,340,2012-10-30 21:26:00
4:37 PM,42.8,37.4,81,29.73,2.5,NNW,20.7,35.7,0.01,,Overcast,330,2012-10-30 21:37:00
4:50 PM,41.0,37.4,87,29.73,3.0,NNW,20.7,36.8,0.02,Rain,Light Rain,340,2012-10-30 21:50:00
4:53 PM,41.0,37.9,89,29.75,3.0,NNW,18.4,32.2,0.02,Rain,Light Rain,340,2012-10-30 21:53:00
5:53 PM,41.0,37.9,89,29.75,7.0,NNW,16.1,29.9,0.02,Rain,Light Rain,330,2012-10-30 22:53:00
6:53 PM,42.1,37.0,82,29.77,9.0,NNW,13.8,34.5,0.01,Rain,Light Rain,330,2012-10-30 23:53:00
7:41 PM,42.8,37.4,81,29.75,9.0,NNW,15.0,25.3,0.01,Rain,Light Rain,340,2012-10-31 00:41:00
7:50 PM,41.0,37.4,87,29.75,6.0,NNW,16.1,32.2,0.02,Rain,Light Rain,340,2012-10-31 00:50:00
7:53 PM,41.0,37.0,86,29.77,6.0,NNW,13.8,32.2,0.02,Rain,Light Rain,330,2012-10-31 00:53:00
8:53 PM,41.0,37.9,89,29.76,10.0,NNW,13.8,27.6,0.02,Rain,Light Rain,340,2012-10-31 01:53:00
9:53 PM,41.0,37.0,86,29.76,10.0,NNW,15.0,28.8,0.01,,Overcast,340,2012-10-31 02:53:00
10:25 PM,41.0,37.4,87,29.73,10.0,NNW,12.7,26.5,0.00,Rain,Light Rain,340,2012-10-31 03:25:00
10:37 PM,41.0,37.4,87,29.73,9.0,NNW,13.8,25.3,0.00,Rain,Light Rain,340,2012-10-31 03:37:00
10:53 PM,41.0,37.0,86,29.74,10.0,NNW,15.0,28.8,0.00,,Overcast,340,2012-10-31 03:53:00
11:25 PM,41.0,37.4,87,29.73,9.0,NNW,17.3,27.6,0.01,Rain,Light Rain,340,2012-10-31 04:25:00
11:43 PM,41.0,37.4,87,29.72,10.0,NNW,12.7,20.7,0.01,,Overcast,340,2012-10-31 04:43:00
11:53 PM,41.0,37.0,86,29.73,10.0,NNW,12.7,31.1,0.01,Rain,Light Rain,340,2012-10-31 04:53:00